Weather History for KCKC - August, 2013

Change the Weather History Date:

Saturday, August 17, 2013

  Actual Average Record
Temperature  
Mean Temperature 63 °F -  
Max Temperature 71 °F 69 °F 86 °F (2008)
Min Temperature 55 °F 48 °F 37 °F (1997)
Degree Days  
Heating Degree Days 2    
Growing Degree Days 13 (Base 50)    
Moisture  
Dew Point 52 °F    
Average Humidity 62    
Maximum Humidity 82    
Minimum Humidity 46    
Precipitation  
Precipitation 0.00 in - - ()
Sea Level Pressure  
Sea Level Pressure 30.14 in    
Wind  
Wind Speed 6 mph (SW)    
Max Wind Speed 16 mph    
Max Gust Speed 29 mph    
Visibility 10 miles    
Events      
Averages and records for this station are not official NWS values.
T = Trace of Precipitation, MM = Missing Value Source: NWS Daily Summary

Daily Weather History Graph

Daily Weather History Graph

Search for Another Location

Airport or City:

Trip Planner

Search our weather history database for the weather conditions in past years. The results will help you decide how hot, cold, wet, or windy it might be!

Date:

Astronomy

Aug. 17, 2013 Rise Set
Actual Time 5:59 AM CDT 8:10 PM CDT
Civil Twilight 5:26 AM CDT 8:43 PM CDT
Nautical Twilight 4:43 AM CDT 9:25 PM CDT
Astronomical Twilight 3:56 AM CDT 10:12 PM CDT
Moon 5:33 PM CDT (8/17) 1:54 AM CDT (8/17)
Length of Visible Light 15h 17m
Length of Day
14h 10m
Waxing Gibbous, 84% of the Moon is Illuminated
Aug 17
Waxing Gibbous
Aug 20
Full
Aug 28
Last Quarter
Sep 5
New
Sep 12
First Quarter

Hourly Weather History & Observations

Time (CDT) Temp. Dew Point Humidity Pressure Visibility Wind Dir Wind Speed Gust Speed Precip Events Conditions
12:13 AM 55.4 °F 50.0 °F 82% 30.16 in 10.0 mi Calm Calm - N/A   Scattered Clouds
12:34 AM 55.4 °F 50.0 °F 82% 30.16 in 10.0 mi WSW 3.5 mph - N/A   Scattered Clouds
12:53 AM 57.2 °F 51.8 °F 82% 30.16 in 10.0 mi WSW 3.5 mph - N/A   Scattered Clouds
1:14 AM 59.0 °F 51.8 °F 77% 30.16 in 10.0 mi West 3.5 mph - N/A   Clear
1:34 AM 59.0 °F 53.6 °F 82% 30.16 in 10.0 mi WSW 3.5 mph - N/A   Scattered Clouds
1:53 AM 60.8 °F 53.6 °F 77% 30.16 in 10.0 mi WSW 4.6 mph - N/A   Scattered Clouds
2:14 AM 60.8 °F 53.6 °F 77% 30.16 in 10.0 mi West 4.6 mph - N/A   Scattered Clouds
2:33 AM 59.0 °F 53.6 °F 82% 30.16 in 10.0 mi West 5.8 mph - N/A   Clear
2:54 AM 60.8 °F 51.8 °F 72% 30.17 in 10.0 mi West 5.8 mph - N/A   Clear
3:14 AM 60.8 °F 51.8 °F 72% 30.17 in 10.0 mi WSW 5.8 mph - N/A   Clear
3:33 AM 60.8 °F 51.8 °F 72% 30.17 in 10.0 mi West 6.9 mph - N/A   Clear
3:54 AM 60.8 °F 51.8 °F 72% 30.17 in 10.0 mi WSW 4.6 mph - N/A   Clear
4:14 AM 57.2 °F 51.8 °F 82% 30.17 in 10.0 mi WSW 5.8 mph - N/A   Clear
4:33 AM 59.0 °F 51.8 °F 77% 30.17 in 10.0 mi West 4.6 mph - N/A   Clear
4:53 AM 59.0 °F 51.8 °F 77% 30.17 in 10.0 mi WSW 5.8 mph - N/A   Clear
5:14 AM 57.2 °F 50.0 °F 77% 30.17 in 10.0 mi West 4.6 mph - N/A   Clear
5:33 AM 57.2 °F 50.0 °F 77% 30.17 in 10.0 mi WSW 3.5 mph - N/A   Clear
5:54 AM 55.4 °F 50.0 °F 82% 30.17 in 10.0 mi Calm Calm - N/A   Clear
6:13 AM 55.4 °F 50.0 °F 82% 30.17 in 10.0 mi WSW 3.5 mph - N/A   Clear
6:33 AM 55.4 °F 50.0 °F 82% 30.17 in 10.0 mi WSW 3.5 mph - N/A   Clear
6:54 AM 57.2 °F 50.0 °F 77% 30.17 in 10.0 mi SW 3.5 mph - N/A   Clear
7:13 AM 59.0 °F 50.0 °F 72% 30.18 in 10.0 mi WSW 4.6 mph - N/A   Clear
7:34 AM 60.8 °F 51.8 °F 72% 30.18 in 10.0 mi SW 3.5 mph - N/A   Clear
7:53 AM 62.6 °F 51.8 °F 68% 30.18 in 10.0 mi SW 3.5 mph - N/A   Clear
8:13 AM 62.6 °F 51.8 °F 68% 30.18 in 10.0 mi SW 4.6 mph - N/A   Clear
8:34 AM 64.4 °F 53.6 °F 68% 30.19 in 10.0 mi SW 4.6 mph - N/A   Clear
8:53 AM 66.2 °F 53.6 °F 64% 30.18 in 10.0 mi SSW 6.9 mph - N/A   Clear
9:13 AM 66.2 °F 53.6 °F 64% 30.19 in 10.0 mi SW 5.8 mph - N/A   Clear
9:34 AM 68.0 °F 53.6 °F 60% 30.18 in 10.0 mi SW 6.9 mph - N/A   Clear
9:53 AM 69.8 °F 53.6 °F 56% 30.18 in 10.0 mi SW 9.2 mph 17.3 mph N/A   Clear
10:13 AM 69.8 °F 51.8 °F 53% 30.18 in 10.0 mi SW 12.7 mph 19.6 mph N/A   Clear
10:33 AM 71.6 °F 51.8 °F 50% 30.18 in 10.0 mi SSW 9.2 mph 18.4 mph N/A   Scattered Clouds
10:54 AM 69.8 °F 51.8 °F 53% 30.18 in 10.0 mi SSW 11.5 mph 18.4 mph N/A   Scattered Clouds
11:13 AM 69.8 °F 53.6 °F 56% 30.18 in 10.0 mi SSW 8.1 mph - N/A   Scattered Clouds
11:33 AM 71.6 °F 55.4 °F 57% 30.17 in 10.0 mi South 8.1 mph 16.1 mph N/A   Clear
11:54 AM 69.8 °F 53.6 °F 56% 30.17 in 10.0 mi South 11.5 mph 19.6 mph N/A   Scattered Clouds
12:13 PM 71.6 °F 53.6 °F 53% 30.17 in 10.0 mi South 12.7 mph 18.4 mph N/A   Scattered Clouds
12:34 PM 71.6 °F 53.6 °F 53% 30.16 in 10.0 mi South 10.4 mph - N/A   Clear
12:53 PM 71.6 °F 53.6 °F 53% 30.15 in 10.0 mi South 12.7 mph 18.4 mph N/A   Clear
1:13 PM 71.6 °F 53.6 °F 53% 30.15 in 10.0 mi SSW 9.2 mph 19.6 mph N/A   Clear
1:34 PM 71.6 °F 53.6 °F 53% 30.14 in 10.0 mi SSW 11.5 mph 20.7 mph N/A   Clear
1:53 PM 69.8 °F 53.6 °F 56% 30.14 in 10.0 mi SSW 12.7 mph 23.0 mph N/A   Clear
2:13 PM 69.8 °F 51.8 °F 53% 30.14 in 10.0 mi SSW 12.7 mph 20.7 mph N/A   Clear
2:34 PM 71.6 °F 53.6 °F 53% 30.14 in 10.0 mi South 9.2 mph 17.3 mph N/A   Clear
2:54 PM 71.6 °F 53.6 °F 53% 30.13 in 10.0 mi SSW 15.0 mph 23.0 mph N/A   Clear
3:13 PM 71.6 °F 53.6 °F 53% 30.13 in 10.0 mi South 10.4 mph 24.2 mph N/A   Clear
3:34 PM 71.6 °F 51.8 °F 50% 30.11 in 10.0 mi South 16.1 mph 24.2 mph N/A   Clear
3:53 PM 71.6 °F 51.8 °F 50% 30.11 in 10.0 mi South 13.8 mph 26.5 mph N/A   Clear
4:13 PM 71.6 °F 51.8 °F 50% 30.11 in 10.0 mi South 12.7 mph 26.5 mph N/A   Clear
4:34 PM 71.6 °F 51.8 °F 50% 30.10 in 10.0 mi SSW 15.0 mph 28.8 mph N/A   Clear
4:53 PM 71.6 °F 50.0 °F 46% 30.10 in 10.0 mi South 13.8 mph 26.5 mph N/A   Clear
5:14 PM 71.6 °F 50.0 °F 46% 30.10 in 10.0 mi South 9.2 mph 24.2 mph N/A   Clear
5:33 PM 71.6 °F 51.8 °F 50% 30.11 in 10.0 mi SSW 9.2 mph 20.7 mph N/A   Clear
5:54 PM 71.6 °F 50.0 °F 46% 30.10 in 10.0 mi SSW 12.7 mph 26.5 mph N/A   Clear
6:13 PM 71.6 °F 50.0 °F 46% 30.10 in 10.0 mi South 12.7 mph 20.7 mph N/A   Clear
6:33 PM 69.8 °F 50.0 °F 49% 30.10 in 10.0 mi SSW 11.5 mph 19.6 mph N/A   Clear
6:54 PM 69.8 °F 48.2 °F 46% 30.09 in 10.0 mi SSW 16.1 mph 23.0 mph N/A   Clear
7:13 PM 69.8 °F 48.2 °F 46% 30.09 in 10.0 mi SSW 12.7 mph 20.7 mph N/A   Clear
7:33 PM 68.0 °F 48.2 °F 49% 30.08 in 10.0 mi SSW 10.4 mph 20.7 mph N/A   Clear
7:54 PM 68.0 °F 48.2 °F 49% 30.10 in 10.0 mi SSW 8.1 mph 17.3 mph N/A   Clear
8:13 PM 66.2 °F 48.2 °F 52% 30.10 in 10.0 mi SSW 5.8 mph 17.3 mph N/A   Clear
8:33 PM 66.2 °F 48.2 °F 52% 30.10 in 10.0 mi SSW 6.9 mph - N/A   Clear
8:53 PM 66.2 °F 50.0 °F 56% 30.10 in 10.0 mi SSW 9.2 mph - N/A   Clear
9:14 PM 66.2 °F 50.0 °F 56% 30.11 in 10.0 mi SSW 6.9 mph - N/A   Clear
9:33 PM 64.4 °F 50.0 °F 59% 30.10 in 10.0 mi SSW 5.8 mph - N/A   Clear
9:54 PM 64.4 °F 50.0 °F 59% 30.10 in 10.0 mi SSW 6.9 mph - N/A   Clear
10:13 PM 64.4 °F 50.0 °F 59% 30.10 in 10.0 mi SW 6.9 mph - N/A   Clear
10:33 PM 64.4 °F 51.8 °F 64% 30.10 in 10.0 mi SW 6.9 mph - N/A   Clear
10:54 PM 64.4 °F 51.8 °F 64% 30.10 in 10.0 mi SW 5.8 mph - N/A   Clear
11:13 PM 64.4 °F 51.8 °F 64% 30.10 in 10.0 mi SSW 5.8 mph - N/A   Clear
11:33 PM 64.4 °F 51.8 °F 64% 30.10 in 10.0 mi SW 5.8 mph - N/A   Clear
11:53 PM 62.6 °F 51.8 °F 68% 30.10 in 10.0 mi SSW 3.5 mph - N/A   Clear